Miscellaneous Local Product
Issued by NWS North Platte, NE

Home | Current Version | Previous Version | Text Only | Print | Product List | Glossary On
Versions: 1 2 3 4 5 6 7 8 9 10 11 12 13 14 15 16 17 18 19 20 21 22 23 24 25 26 27 28 29 30 31 32 33 34 35 36 37 38 39 40 41 42 43 44 45 46 47 48 49 50
006
AXUS43 KLBF 210410
MISLBF


WESTERN AND NORTH CENTRAL NEBRASKA HOURLY WEATHER ROUNDUP
NATIONAL WEATHER SERVICE NORTH PLATTE NE
1100 PM CDT SUN AUG 20 2017

NOTE: "FAIR" INDICATES FEW OR NO CLOUDS BELOW 12,000 FEET WITH NO
SIGNIFICANT WEATHER AND/OR OBSTRUCTIONS TO VISIBILITY.

NOTE: STATIONS NOT REPORTING VARIABLES SUCH AS SKY/WEATHER OR
PRESSURE ARE PROVIDED BY RAWS AND APRS NETWORKS AND ARE NOT UNDER
NATIONAL WEATHER SERVICE QUALITY CONTROL.

...OBSERVATIONS IN AND NEAR THE EASTERN PANHANDLE OF NEBRASKA...

CITY           SKY/WX    TMP DP  RH WIND       PRES   REMARKS
PINE RIDGE     CLEAR     67  57  70 E8        30.04R
GORDON         FAIR      64  56  75 E5        30.05R
CHADRON        CLOUDY    72  57  59 E9        30.00S
ALLIANCE       CLOUDY    63  59  87 E6        30.04R
SIDNEY         CLOUDY    67  62  84 SE10      30.07S
$$

...OBSERVATIONS IN NORTHERN NEBRASKA AND FAR SOUTHERN SOUTH DAKOTA...

CITY           SKY/WX    TMP DP  RH WIND       PRES   REMARKS
WINNER         CLOUDY    70  62  76 NE6       30.02R
VALENTINE      CLOUDY    72  61  68 NE10      30.03R
THEDFORD       PTCLDY    71  69  93 E9        30.02S
AINSWORTH      CLEAR     68  68  99 NE5       30.01F
O`NEILL        CLEAR     69  69  99 E7        30.00S
ORD            PTCLDY    73  68  84 E6        29.97S
BROKEN BOW     CLEAR     74  70  87 E8        29.99R
VALENTINE NWR    N/A     69  67  94 E6          N/A
HALSEY           N/A     71  69  92 E5          N/A
BUTTE            N/A     70  66  88 NE12        N/A
CHAMBERS         N/A     71  68  90 CALM        N/A
EWING            N/A     72  69  90 CALM        N/A
$$

...OBSERVATIONS IN SOUTHWEST NEBRASKA AND FAR NORTHEAST COLORADO...

CITY           SKY/WX    TMP DP  RH WIND       PRES   REMARKS
HOLYOKE        FAIR      73  68  83 E7        30.03S
IMPERIAL       PTCLDY    71  66  84 E5        30.00R
OGALLALA       PTCLDY    72  68  87 E6        30.01R
NORTH PLATTE   MOCLDY    74  71  91 E7        29.98S
MCCOOK         CLOUDY    76  72  87 NE6       29.96R
LEXINGTON      CLOUDY    76  73  91 NE7       29.96S
STAPLETON        N/A     71  68  90 CALM        N/A
GOTHENBURG       N/A     76  69  78 NE3         N/A
CALLAWAY         N/A     75  72  91 E12         N/A
$$

...OBSERVATIONS IN CENTRAL LINCOLN COUNTY AREA...

CITY           SKY/WX    TMP DP  RH WIND       PRES   REMARKS
N.P. AIRPORT   MOCLDY    74  71  91 E7        29.98S
N.P. DOWNTOWN    N/A     75  70  86 CALM        N/A
N.P. SOUTHEAST   N/A     74  69  86 CALM        N/A
N.P. HILLCREST   N/A     73  69  88 E12         N/A
$$

...SOME OBSERVATIONS FROM AROUND THE REGION...

CITY           SKY/WX    TMP DP  RH WIND       PRES   REMARKS
DENVER         CLOUDY    75  40  28 SW8       30.14R
LIMON          CLOUDY    68  56  65 CALM      30.13R
ASPEN          CLOUDY    61  39  44 S7        30.29R
LARAMIE        CLOUDY    61  37  41 S6        30.24R
CASPER         CLOUDY    75  35  23 MISG      30.05R
CHEYENNE       CLOUDY    64  48  56 SW5       30.17S
SCOTTSBLUFF    PTCLDY    73  63  70 E12       30.02R
GRAND ISLAND   PTCLDY    74  74 100 NE6       29.95R
OMAHA          PTCLDY    75  66  73 SE8       29.99R
SIOUX FALLS    MOCLDY    69  65  86 NE6       30.02R
PIERRE         CLEAR     62  51  67 E10       30.01S
RAPID CITY     CLEAR     69  54  58 SE16      30.02R
BISMARCK       CLOUDY    58  54  86 SE3       30.05R
KANSAS CITY    MOCLDY    79  71  76 S13       30.02R
HILL CITY      CLOUDY    82  64  54 S8        29.96R
WICHITA        CLOUDY    82  71  69 S12       30.01R
DODGE CITY     PTCLDY    81  64  56 S15       30.01R
OKLAHOMA CITY  PTCLDY    80  71  74 S8        30.04R
DALLAS         PTCLDY    88  73  61 SE10      29.99R HX  95
AMARILLO       CLOUDY    68  63  84 SW23      30.15R
$$




USA.gov is the U.S. government's official web portal to all federal, state and local government web resources and services.